+ View the NASA Portal
+ Center for Near-Earth Object Studies
IMPORTANT:
The SSD Announcement email list is now available. Major changes are coming in the near future, including possible hostname and/or URL changes. To be notified of such changes, subscribe to this email list.
Please visit
this page
for more details.
Don't show this message again
JPL Small-Body Database Browser
Search:
[
help
]
266139 (2006 TR80)
Classification:
Main-belt Asteroid
SPK-ID:
2266139
[
Ephemeris
|
Orbit Diagram
|
Orbital Elements
|
Mission Design
|
Physical Parameters
|
Discovery Circumstances
|
Close-Approach Data
]
[ show orbit diagram ]
Orbital Elements at Epoch 2458600.5 (2019-Apr-27.0) TDB
Reference:
JPL 8
(heliocentric ecliptic J2000)
Element
Value
Uncertainty (1-sigma)
Units
e
.1220989117613901
8.9997e-08
a
2.161255277562338
2.2621e-08
au
q
1.897368360133415
2.1025e-07
au
i
5.132657825963785
6.1892e-06
deg
node
259.1536984580312
6.6156e-05
deg
peri
38.87191366625968
7.2354e-05
deg
M
61.26102851182198
2.3155e-05
deg
t
p
2458403.012637289995
(2018-Oct-11.51263729)
7.5168e-05
TDB
period
1160.533087717944
3.18
1.8221e-05
4.989e-08
d
yr
n
.3102022715335923
4.8702e-09
deg/d
Q
2.425142194991261
2.5383e-08
au
Orbit Determination Parameters
# obs. used (total)
190
data-arc span
5906 days (16.17 yr)
first obs. used
2002-05-10
last obs. used
2018-07-11
planetary ephem.
DE431
SB-pert. ephem.
SB431-N16
condition code
0
norm. resid. RMS
.65222
source
ORB
producer
Otto Matic
solution date
2019-Jul-14 08:15:31
Additional Information
Earth MOID
= .883936 au
Jupiter MOID
= 2.73755 au
T_jup
= 3.682
[ show covariance matrix ]
[
Ephemeris
|
Orbit Diagram
|
Orbital Elements
|
Mission Design
|
Physical Parameters
|
Discovery Circumstances
|
Close-Approach Data
]
Physical Parameter Table
Parameter
Symbol
Value
Units
Sigma
Reference
Notes
absolute magnitude
H
17.1
n/a
MPO450145
266139 (2006 TR80)
Discovered 2006-Oct-13 by Spacewatch at Kitt Peak
Reference:
20110218/Numbers.arc
Last Updated:
2011-02-22
[ show close-approach data ]
Alternate Designations
2006 TR80
= 2002 JP139
[
Ephemeris
|
Orbit Diagram
|
Orbital Elements
|
Mission Design
|
Physical Parameters
|
Discovery Circumstances
|
Close-Approach Data
]
2019-Dec-12 19:45 UT
(server date/time)
Site Manager:
Ryan S. Park
Webmaster
:
Alan B. Chamberlin